{"data":{"norad_id":62800,"epoch":"2026-05-25T04:07:33.168288Z","epoch_age_seconds":56625,"freshness":"FRESH","line1":"1 62800U 25016R   26145.17191167  .00000110  00000+0  15129-3 0  9993","line2":"2 62800  88.9729  86.1513 0013545 217.5958 142.4248 13.51013693 69305","mean_motion":13.51013693,"eccentricity":0.0013545,"inclination_deg":88.9729,"raan_deg":86.1513,"arg_perigee_deg":217.5958,"mean_anomaly_deg":142.4248,"bstar":0.00015129,"rev_number":6930,"period_min":106.58663250129,"perigee_km":1058.4447562454,"apogee_km":1078.6177805846,"semimajor_km":7446.668268415,"source":"CELESTRAK","updated_at":"2026-05-25T13:38:03.278830Z"}}